| time (UTC) | temp C | wind direction | speed KPH | gust KPH | rain 1hr cm | rain 24hr cm | rain mn cm | humidity % | barometer mb |
| 20260502163930 | 12 | 345 | 0.0 | 1.6 | 0.00 | 0.00 | 0.00 | 45 | 984.7 |
| 20260502163338 | 12 | 54 | 1.6 | 4.8 | 0.00 | 0.00 | 0.00 | 48 | 985.1 |
| 20260502162735 | 11 | 38 | 3.2 | 6.4 | 0.00 | 0.00 | 0.00 | 46 | 985.1 |
| 20260502162134 | 12 | 13 | 1.6 | 9.7 | 0.00 | 0.00 | 0.00 | 46 | 985.1 |
| 20260502161514 | 13 | 31 | 4.8 | 9.7 | 0.00 | 0.00 | 0.00 | 47 | 985.1 |
| 20260502152129 | 10 | 357 | 1.6 | 3.2 | 0.00 | 0.00 | 0.00 | 58 | 985.1 |
| 20260502151544 | 11 | 8 | 1.6 | 9.7 | 0.00 | 0.00 | 0.00 | 54 | 985.4 |
| 20260502150917 | 12 | 6 | 0.0 | 6.4 | 0.00 | 0.00 | 0.00 | 51 | 985.1 |
| 20260502150345 | 12 | 351 | 0.0 | 3.2 | 0.00 | 0.00 | 0.00 | 59 | 985.1 |
| 20260502130324 | 5 | 336 | 0.0 | 0.0 | 0.00 | 0.00 | 0.00 | 97 | 985.4 |
| 20260502123319 | 3 | 336 | 0.0 | 0.0 | 0.00 | 0.00 | 0.00 | 97 | 985.4 |
| 20260502122727 | 3 | 336 | 0.0 | 0.0 | 0.00 | 0.00 | 0.00 | 97 | 985.4 |
| 20260502122144 | 3 | 336 | 0.0 | 0.0 | 0.00 | 0.00 | 0.00 | 97 | 985.7 |
| 20260502121540 | 2 | 336 | 0.0 | 0.0 | 0.00 | 0.00 | 0.00 | 97 | 985.4 |
| 20260502120923 | 2 | 336 | 0.0 | 0.0 | 0.00 | 0.00 | 0.00 | 97 | 985.4 |
| 20260502115717 | 2 | 337 | 0.0 | 0.0 | 0.00 | 0.00 | 0.00 | 97 | 985.7 |
| 20260502114526 | 2 | 337 | 0.0 | 0.0 | 0.00 | 0.00 | 0.00 | 97 | 985.7 |
| 20260502113932 | 1 | 337 | 0.0 | 0.0 | 0.00 | 0.00 | 0.00 | 97 | 985.7 |
| 20260502113336 | 1 | 337 | 0.0 | 0.0 | 0.00 | 0.00 | 0.00 | 97 | 985.4 |
| 20260502112731 | 1 | 337 | 0.0 | 0.0 | 0.00 | 0.00 | 0.00 | 97 | 985.7 |
| 20260502111521 | 1 | 337 | 0.0 | 0.0 | 0.00 | 0.00 | 0.00 | 97 | 985.7 |
| 20260502110923 | 1 | 337 | 0.0 | 0.0 | 0.00 | 0.00 | 0.00 | 97 | 985.4 |
| 20260502105717 | 1 | 336 | 0.0 | 0.0 | 0.00 | 0.00 | 0.00 | 97 | 985.4 |
| 20260502105151 | 1 | 335 | 0.0 | 0.0 | 0.00 | 0.00 | 0.00 | 97 | 985.1 |
| 20260502104512 | 1 | 335 | 0.0 | 0.0 | 0.00 | 0.00 | 0.00 | 97 | 985.1 |
| 20260502103944 | 1 | 337 | 0.0 | 0.0 | 0.00 | 0.00 | 0.00 | 97 | 985.4 |
| 20260502103330 | 1 | 337 | 0.0 | 0.0 | 0.00 | 0.00 | 0.00 | 97 | 985.4 |
| 20260502102722 | 1 | 337 | 0.0 | 0.0 | 0.00 | 0.00 | 0.00 | 97 | 985.7 |
| 20260502102128 | 1 | 337 | 0.0 | 0.0 | 0.00 | 0.00 | 0.00 | 97 | 985.7 |
| 20260502100935 | 1 | 337 | 0.0 | 0.0 | 0.00 | 0.00 | 0.00 | 97 | 985.7 |
| 20260502100347 | 1 | 337 | 0.0 | 0.0 | 0.00 | 0.00 | 0.00 | 97 | 985.7 |
| 20260502090948 | 2 | 336 | 0.0 | 0.0 | 0.00 | 0.00 | 0.00 | 97 | 985.7 |
| 20260502090333 | 2 | 336 | 0.0 | 0.0 | 0.00 | 0.00 | 0.00 | 97 | 985.7 |
| 20260502071526 | 3 | 335 | 0.0 | 0.0 | 0.00 | 0.00 | 0.00 | 95 | 985.1 |
| 20260502070913 | 3 | 335 | 0.0 | 0.0 | 0.00 | 0.00 | 0.00 | 95 | 985.1 |
| 20260502070337 | 3 | 336 | 0.0 | 0.0 | 0.00 | 0.00 | 0.00 | 95 | 985.1 |
| 20260502065712 | 3 | 336 | 0.0 | 0.0 | 0.00 | 0.00 | 0.00 | 95 | 985.1 |
| 20260502065141 | 3 | 333 | 0.0 | 0.0 | 0.00 | 0.00 | 0.00 | 95 | 985.1 |
| 20260502063913 | 3 | 336 | 0.0 | 0.0 | 0.00 | 0.00 | 0.00 | 94 | 985.4 |
| 20260502063326 | 3 | 340 | 0.0 | 0.0 | 0.00 | 0.00 | 0.00 | 94 | 985.4 |
| 20260502062727 | 3 | 336 | 0.0 | 0.0 | 0.00 | 0.00 | 0.00 | 94 | 985.4 |
| 20260502062149 | 4 | 336 | 0.0 | 0.0 | 0.00 | 0.00 | 0.00 | 93 | 985.7 |
| 20260502061532 | 4 | 335 | 0.0 | 0.0 | 0.00 | 0.00 | 0.00 | 93 | 985.7 |
| 20260502060950 | 4 | 332 | 0.0 | 0.0 | 0.00 | 0.00 | 0.00 | 93 | 985.7 |
| 20260502060338 | 5 | 337 | 0.0 | 0.0 | 0.00 | 0.00 | 0.00 | 92 | 985.7 |
| 20260502055713 | 5 | 340 | 0.0 | 0.0 | 0.00 | 0.00 | 0.00 | 92 | 985.7 |
| 20260502055137 | 5 | 340 | 0.0 | 0.0 | 0.00 | 0.00 | 0.00 | 91 | 985.7 |
| 20260502054539 | 5 | 331 | 0.0 | 0.0 | 0.00 | 0.00 | 0.00 | 91 | 985.7 |
| 20260502053936 | 5 | 337 | 0.0 | 0.0 | 0.00 | 0.00 | 0.00 | 90 | 985.7 |
| 20260502053342 | 5 | 337 | 0.0 | 0.0 | 0.00 | 0.00 | 0.00 | 89 | 985.7 |
| 20260502052742 | 6 | 334 | 0.0 | 0.0 | 0.00 | 0.00 | 0.00 | 89 | 985.7 |
| 20260502052136 | 6 | 336 | 0.0 | 0.0 | 0.00 | 0.00 | 0.00 | 87 | 985.7 |
| 20260502051537 | 6 | 344 | 0.0 | 0.0 | 0.00 | 0.00 | 0.00 | 86 | 985.7 |
| 20260502050947 | 6 | 344 | 0.0 | 0.0 | 0.00 | 0.00 | 0.00 | 85 | 985.7 |
| 20260502045713 | 7 | 344 | 0.0 | 0.0 | 0.00 | 0.00 | 0.00 | 83 | 985.7 |
| 20260502045152 | 7 | 348 | 0.0 | 0.0 | 0.00 | 0.00 | 0.00 | 82 | 985.7 |
| 20260502043951 | 8 | 348 | 0.0 | 0.0 | 0.00 | 0.00 | 0.00 | 81 | 985.4 |
| 20260502042725 | 8 | 348 | 0.0 | 0.0 | 0.00 | 0.00 | 0.00 | 79 | 985.4 |
| 20260502042129 | 8 | 348 | 0.0 | 0.0 | 0.00 | 0.00 | 0.00 | 78 | 985.4 |
| 20260502041554 | 8 | 348 | 0.0 | 0.0 | 0.00 | 0.00 | 0.00 | 79 | 985.4 |
| 20260502040935 | 8 | 348 | 0.0 | 0.0 | 0.00 | 0.00 | 0.00 | 75 | 985.4 |
| 20260502040353 | 8 | 348 | 0.0 | 0.0 | 0.00 | 0.00 | 0.00 | 73 | 985.7 |
| 20260502035735 | 8 | 348 | 0.0 | 0.0 | 0.00 | 0.00 | 0.00 | 73 | 985.7 |
| 20260502033952 | 9 | 348 | 0.0 | 1.6 | 0.00 | 0.00 | 0.00 | 71 | 985.7 |
| 20260502033341 | 9 | 355 | 1.6 | 3.2 | 0.00 | 0.00 | 0.00 | 70 | 985.7 |
| 20260502032121 | 9 | 42 | 3.2 | 3.2 | 0.00 | 0.00 | 0.00 | 70 | 985.4 |
| 20260502031527 | 9 | 26 | 3.2 | 3.2 | 0.00 | 0.00 | 0.00 | 70 | 985.7 |
| 20260502030936 | 9 | 354 | 0.0 | 1.6 | 0.00 | 0.00 | 0.00 | 69 | 985.4 |
| 20260502030329 | 10 | 355 | 0.0 | 1.6 | 0.00 | 0.00 | 0.00 | 71 | 985.4 |
| 20260502025726 | 10 | 350 | 0.0 | 3.2 | 0.00 | 0.00 | 0.00 | 71 | 985.4 |
| 20260502025148 | 10 | 356 | 0.0 | 3.2 | 0.00 | 0.00 | 0.00 | 70 | 985.4 |
| 20260502024553 | 10 | 17 | 3.2 | 6.4 | 0.00 | 0.00 | 0.00 | 70 | 985.7 |
| 20260502023949 | 10 | 56 | 1.6 | 3.2 | 0.00 | 0.00 | 0.00 | 72 | 985.7 |
| 20260502023327 | 10 | 344 | 0.0 | 0.0 | 0.00 | 0.00 | 0.00 | 73 | 985.4 |
| 20260502022736 | 10 | 12 | 4.8 | 12.9 | 0.00 | 0.00 | 0.00 | 72 | 985.4 |
| 20260502022149 | 10 | 356 | 0.0 | 4.8 | 0.00 | 0.00 | 0.00 | 71 | 984.7 |
| 20260502021524 | 10 | 348 | 0.0 | 0.0 | 0.00 | 0.00 | 0.00 | 73 | 985.1 |
| 20260502020917 | 10 | 335 | 0.0 | 1.6 | 0.00 | 0.00 | 0.00 | 73 | 984.7 |
| 20260502020338 | 10 | 340 | 0.0 | 1.6 | 0.00 | 0.00 | 0.00 | 73 | 984.7 |
| 20260502015114 | 10 | 351 | 0.0 | 0.0 | 0.00 | 0.00 | 0.00 | 78 | 984.7 |
| 20260502014554 | 10 | 340 | 0.0 | 0.0 | 0.00 | 0.00 | 0.00 | 81 | 984.4 |
| 20260502013953 | 10 | 348 | 0.0 | 0.0 | 0.00 | 0.00 | 0.00 | 84 | 984.4 |
| 20260502013312 | 10 | 348 | 0.0 | 0.0 | 0.00 | 0.00 | 0.00 | 87 | 984.0 |
| 20260502012741 | 10 | 344 | 0.0 | 0.0 | 0.00 | 0.00 | 0.00 | 86 | 984.0 |
| 20260502012136 | 10 | 335 | 0.0 | 0.0 | 0.00 | 0.00 | 0.00 | 86 | 984.0 |
| 20260502011521 | 10 | 348 | 0.0 | 0.0 | 0.00 | 0.00 | 0.00 | 86 | 984.0 |
| 20260502010935 | 10 | 344 | 0.0 | 0.0 | 0.00 | 0.00 | 0.00 | 85 | 983.7 |
| 20260502010317 | 10 | 344 | 0.0 | 0.0 | 0.00 | 0.00 | 0.00 | 85 | 983.7 |
| 20260502005749 | 10 | 343 | 0.0 | 0.0 | 0.00 | 0.00 | 0.00 | 84 | 983.7 |
| 20260502005118 | 10 | 343 | 0.0 | 0.0 | 0.00 | 0.00 | 0.00 | 85 | 983.4 |
| 20260502004519 | 10 | 344 | 0.0 | 0.0 | 0.00 | 0.00 | 0.00 | 85 | 983.4 |
| 20260502003914 | 10 | 336 | 0.0 | 0.0 | 0.00 | 0.00 | 0.00 | 84 | 983.4 |
| 20260502003311 | 10 | 337 | 0.0 | 0.0 | 0.00 | 0.00 | 0.00 | 84 | 983.4 |
| 20260502002144 | 11 | 340 | 0.0 | 0.0 | 0.00 | 0.00 | 0.00 | 83 | 983.4 |
| 20260502001533 | 11 | 335 | 0.0 | 0.0 | 0.00 | 0.00 | 0.00 | 82 | 983.0 |
| 20260502000923 | 11 | 336 | 0.0 | 0.0 | 0.00 | 0.00 | 0.00 | 82 | 982.7 |
| 20260502000354 | 11 | 328 | 0.0 | 0.0 | 0.00 | 0.00 | 0.00 | 81 | 982.7 |
| 20260501235710 | 11 | 337 | 0.0 | 0.0 | 0.00 | 0.00 | 0.00 | 79 | 982.7 |
| 20260501235129 | 11 | 336 | 0.0 | 0.0 | 0.00 | 0.00 | 0.00 | 78 | 982.3 |
| 20260501234529 | 11 | 336 | 0.0 | 0.0 | 0.00 | 0.00 | 0.00 | 75 | 982.3 |
| 20260501233932 | 11 | 340 | 0.0 | 0.0 | 0.00 | 0.00 | 0.00 | 77 | 982.3 |
| 20260501233330 | 11 | 337 | 0.0 | 0.0 | 0.00 | 0.00 | 0.00 | 75 | 982.3 |
| 20260501232119 | 11 | 348 | 0.0 | 0.0 | 0.00 | 0.00 | 0.00 | 74 | |
| 20260501231520 | 11 | 343 | 0.0 | 0.0 | 0.00 | 0.00 | 0.00 | 75 | 982.3 |
| 20260501230915 | 11 | 337 | 0.0 | 0.0 | 0.00 | 0.00 | 0.00 | 77 | 982.3 |
| 20260501230339 | 11 | 356 | 0.0 | 0.0 | 0.00 | 0.00 | 0.00 | 73 | |
| 20260501225745 | 11 | 340 | 1.6 | 3.2 | 0.00 | 0.00 | 0.00 | 73 | |
| 20260501224521 | 12 | 30 | 3.2 | 6.4 | 0.00 | 0.00 | 0.00 | 66 | |
| 20260501223953 | 13 | 340 | 1.6 | 6.4 | 0.00 | 0.00 | 0.00 | 67 | |
| 20260501223351 | 13 | 17 | 6.4 | 9.7 | 0.00 | 0.00 | 0.00 | 66 | |
| 20260501222716 | 13 | 337 | 0.0 | 3.2 | 0.00 | 0.00 | 0.00 | 67 | |
| 20260501222115 | 13 | 348 | 0.0 | 1.6 | 0.00 | 0.00 | 0.00 | 68 | |
| 20260501221520 | 13 | 3 | 1.6 | 3.2 | 0.00 | 0.00 | 0.00 | 69 | |
| 20260501220340 | 13 | 7 | 0.0 | 3.2 | 0.00 | 0.00 | 0.00 | 71 | |
| 20260501215719 | 13 | 28 | 1.6 | 9.7 | 0.00 | 0.00 | 0.00 | 71 | |
| 20260501215129 | 14 | 205 | 3.2 | 4.8 | 0.00 | 0.00 | 0.00 | 69 | |
| 20260501214546 | 14 | 349 | 0.0 | 1.6 | 0.00 | 0.00 | 0.00 | 68 | |
| 20260501213923 | 14 | 19 | 1.6 | 4.8 | 0.00 | 0.00 | 0.00 | 67 | |
| 20260501213324 | 15 | 348 | 3.2 | 3.2 | 0.00 | 0.00 | 0.00 | 67 | |
| 20260501212738 | 13 | 14 | 3.2 | 3.2 | 0.00 | 0.00 | 0.00 | 70 | |
| 20260501212141 | 13 | 18 | 1.6 | 4.8 | 0.00 | 0.00 | 0.00 | 69 | |
| 20260501210942 | 14 | 24 | 0.0 | 9.7 | 0.00 | 0.00 | 0.00 | 72 | |
| 20260501210334 | 14 | 1 | 3.2 | 4.8 | 0.00 | 0.00 | 0.00 | 65 | |
| 20260501205152 | 16 | 51 | 3.2 | 4.8 | 0.00 | 0.00 | 0.00 | 60 | |
| 20260501204536 | 16 | 352 | 0.0 | 3.2 | 0.00 | 0.00 | 0.00 | 58 | |
| 20260501203941 | 16 | 348 | 1.6 | 12.9 | 0.00 | 0.00 | 0.00 | 56 | |
| 20260501203329 | 17 | 358 | 0.0 | 1.6 | 0.00 | 0.00 | 0.00 | 54 | |
| 20260501202716 | 17 | 210 | 4.8 | 6.4 | 0.00 | 0.00 | 0.00 | 51 | |
| 20260501202122 | 17 | 347 | 0.0 | 3.2 | 0.00 | 0.00 | 0.00 | 50 | |
| 20260501201536 | 17 | 352 | 0.0 | 3.2 | 0.00 | 0.00 | 0.00 | 54 | |
| 20260501200947 | 17 | 2 | 3.2 | 4.8 | 0.00 | 0.00 | 0.00 | 46 | |
| 20260501200349 | 17 | 135 | 3.2 | 6.4 | 0.00 | 0.00 | 0.00 | 43 | |
| 20260501195727 | 17 | 340 | 0.0 | 1.6 | 0.00 | 0.00 | 0.00 | 42 | |
| 20260501195125 | 18 | 341 | 1.6 | 6.4 | 0.00 | 0.00 | 0.00 | 41 | |
| 20260501194547 | 18 | 229 | 8.0 | 9.7 | 0.00 | 0.00 | 0.00 | 41 | |
| 20260501193934 | 18 | 31 | 6.4 | 16.1 | 0.00 | 0.00 | 0.00 | 40 | |
| 20260501193314 | 19 | 11 | 3.2 | 6.4 | 0.00 | 0.00 | 0.00 | 41 | |
| 20260501192719 | 20 | 224 | 8.0 | 17.7 | 0.00 | 0.00 | 0.00 | 39 | |
| 20260501192139 | 18 | 346 | 3.2 | 12.9 | 0.00 | 0.00 | 0.00 | 42 | |
| 20260501191517 | 18 | 303 | 3.2 | 9.7 | 0.00 | 0.00 | 0.00 | 39 | |
| 20260501190942 | 19 | 218 | 8.0 | 17.7 | 0.00 | 0.00 | 0.00 | 39 | |
| 20260501190351 | 20 | 312 | 3.2 | 3.2 | 0.00 | 0.00 | 0.00 | 41 | |
| 20260501185727 | 19 | 263 | 3.2 | 4.8 | 0.00 | 0.00 | 0.00 | 39 | |
| 20260501185114 | 19 | 211 | 8.0 | 9.7 | 0.00 | 0.00 | 0.00 | 36 | |
| 20260501184538 | 18 | 343 | 1.6 | 11.3 | 0.00 | 0.00 | 0.00 | 46 | |
| 20260501183947 | 18 | 3 | 1.6 | 1.6 | 0.00 | 0.00 | 0.00 | 37 | |
| 20260501183330 | 18 | 350 | 3.2 | 6.4 | 0.00 | 0.00 | 0.00 | 36 | |
| 20260501182719 | 18 | 38 | 1.6 | 9.7 | 0.00 | 0.00 | 0.00 | 42 | |
| 20260501181520 | 18 | 286 | 3.2 | 11.3 | 0.00 | 0.00 | 0.00 | 33 | |
| 20260501180926 | 19 | 315 | 1.6 | 4.8 | 0.00 | 0.00 | 0.00 | 32 | |
| 20260501180335 | 18 | 282 | 1.6 | 11.3 | 0.00 | 0.00 | 0.00 | 35 | |
| 20260501175130 | 18 | 323 | 3.2 | 4.8 | 0.00 | 0.00 | 0.00 | 37 | |
| 20260501174538 | 19 | 274 | 6.4 | 11.3 | 0.00 | 0.00 | 0.00 | 38 | |
| 20260501173944 | 19 | 267 | 3.2 | 9.7 | 0.00 | 0.00 | 0.00 | 33 | |
| 20260501172714 | 18 | 340 | 1.6 | 4.8 | 0.00 | 0.00 | 0.00 | 33 | |
| 20260501172116 | 18 | 311 | 3.2 | 19.3 | 0.00 | 0.00 | 0.00 | 35 | |
| 20260501171540 | 18 | 235 | 3.2 | 3.2 | 0.00 | 0.00 | 0.00 | 37 |